Location: ???????????
(55.5758°N, 38.4970°E)
Time: 18:17:25
(UTC+00:00)

NOSS 2-1 (C) - Pass Details

Date: 15 November 2025
Orbit: 375 x 1687 km, 63.3° (Epoch: 14 December)

Event Time Altitude Azimuth Distance (km) Brightness Sun altitude
Exits shadow 03:52:38 13° 311° (NW) 1,246 4.6 -9.5°
Maximum altitude 03:54:27 20° 355° (N) 959 4.3 -9.2°
Drops below altitude 10° 03:56:49 10° 46° (NE) 1,447 5.8 -8.9°
Sets 03:59:20 0° 64° (ENE) 2,403 7.3 -8.6°
